This demonstration page uses our WeatherBlox Daily Observations layout. Learn more.

Left ArrowRight Arrow

Hourly Observations for March 31, 2017

Temp ( °F °C ) Dew Point ( °F °C ) Humidity (%) Winds ( mph kmh ) Pressure ( in mb ) Visibility ( mi km ) Precip ( " mm )
12:24 am 00:24 Cloudy with Light Rain 58 14.4 58 14.4 100 100 E 3 6 29.68 1005 6 9.65604 0.04 1.016
12:53 am 00:53 Cloudy with Light Rain 57 13.9 57 13.9 100 100 ESE 6 9 29.67 1005 7 11.26538 0.08 2.032
1:10 am 01:10 Cloudy with Heavy Rain 58 14.4 58 14.4 100 100 VRB 6 9 29.71 1006 1.75 2.816345 0.11 2.794
1:15 am 01:15 Cloudy with Heavy Rain 58 14.4 58 14.4 100 100 SE 6 9 29.68 1005 1.5 2.41401 0.14 3.556
1:19 am 01:19 Cloudy with Heavy Rain 58 14.4 58 14.4 100 100 SE 5 7 29.68 1005 2 3.21868 0.16 4.064
1:25 am 01:25 Cloudy with Rain 58 14.4 58 14.4 100 100 ESE 6 9 29.68 1005 3 4.82802 0.18 4.572
1:53 am 01:53 Cloudy with Light Rain 58 14.4 57 13.9 97 97 E 7 11 29.64 1004 7 11.26538 0.24 6.096
2:53 am 02:53 Cloudy with Light Rain 57 13.9 57 13.9 100 100 VRB 3 6 29.63 1003 7 11.26538 0.06 1.524
3:14 am 03:14 Cloudy with Light Rain 57 13.9 57 13.9 100 100 N N/A 29.62 1003 4 6.43736 0.04 1.016
3:53 am 03:53 Mostly Cloudy with Light Rain 56 13.3 56 13.3 100 100 E 3 6 29.6 1002 10 16.0934 0.05 1.27
4:53 am 04:53 Cloudy with Light Rain 57 13.9 57 13.9 100 100 N N/A 29.59 1002 9 14.48406 N/A
5:53 am 05:53 Cloudy with Light Rain 57 13.9 57 13.9 100 100 ESE 3 6 29.58 1002 8 12.87472 0.01 0.254
6:53 am 06:53 Cloudy with Light Rain 57 13.9 56 13.3 96 96 N N/A 29.58 1002 10 16.0934 0.01 0.254
7:39 am 07:39 Cloudy 57 13.9 56 13.3 96 96 VRB 3 6 29.59 1002 10 16.0934 N/A
7:53 am 07:53 Cloudy 57 13.9 56 13.3 96 96 VRB 3 6 29.59 1002 10 16.0934 N/A
8:24 am 08:24 Cloudy with Light Rain 57 13.9 56 13.3 96 96 undefined N/A 29.62 1003 6 9.65604 0.04 1.016
8:34 am 08:34 Cloudy 57 13.9 56 13.3 96 96 SW 9 15 29.62 1003 10 16.0934 0.04 1.016
8:42 am 08:42 Cloudy with Light Rain 56 13.3 54 12.2 93 93 WSW 12 19 29.62 1003 10 16.0934 0.04 1.016
8:53 am 08:53 Cloudy 56 13.3 53 11.7 90 90 W 8 13 29.61 1003 10 16.0934 0.04 1.016
9:53 am 09:53 Cloudy 56 13.3 53 11.7 90 90 W 10 17 29.61 1003 10 16.0934 N/A
10:53 am 10:53 Cloudy 55 12.8 51 10.6 87 87 W 9 15 29.64 1004 10 16.0934 N/A
11:53 am 11:53 Cloudy 56 13.3 50 10 81 81 W 12 19 29.66 1004 10 16.0934 N/A
12:51 pm 12:51 Cloudy with Light Rain 54 12 52 11 94 94 WSW 12 19 29.68 1005 4 6.43736 N/A
12:53 pm 12:53 Cloudy with Light Rain 54 12.2 52 11.1 93 93 WSW 14 22 29.68 1005 4 6.43736 N/A
1:53 pm 13:53 Cloudy 55 12.8 49 9.4 80 80 WSW 13 20 29.69 1005 10 16.0934 N/A
2:53 pm 14:53 Cloudy 56 13.3 49 9.4 77 77 W 13 20 29.71 1006 8 12.87472 N/A
3:14 pm 15:14 Cloudy with Light Rain 54 12.2 51 10.6 90 90 W 16 26 29.71 1006 6 9.65604 0.01 0.254
3:53 pm 15:53 Cloudy 54 12.2 51 10.6 90 90 WSW 14 22 29.73 1007 10 16.0934 0.01 0.254
4:53 pm 16:53 Cloudy 55 12.8 49 9.4 80 80 W 10 17 29.75 1007 10 16.0934 N/A
5:53 pm 17:53 Cloudy 53 11.7 48 8.9 83 83 WNW 15 24 29.78 1009 10 16.0934 N/A
6:32 pm 18:32 Cloudy 52 11.1 48 8.9 86 86 WNW 16 26 29.83 1010 10 16.0934 N/A
6:53 pm 18:53 Cloudy 50 10 48 8.9 93 93 WNW 16 26 29.82 1010 9 14.48406 N/A
7:39 pm 19:39 Cloudy with Mist and Fog 48 8.9 46 7.8 93 93 WNW 13 20 29.88 1012 6 9.65604 N/A
7:53 pm 19:53 Cloudy with Mist and Fog 48 8.9 46 7.8 93 93 WNW 15 24 29.86 1011 6 9.65604 N/A
8:20 pm 20:20 Cloudy with Light Rain 47 8.3 45 7.2 93 93 WNW 14 22 29.91 1013 7 11.26538 N/A
8:43 pm 20:43 Cloudy 46 7.8 44 6.7 93 93 NW 14 22 29.91 1013 9 14.48406 N/A
8:53 pm 20:53 Cloudy 46 7.8 44 6.7 93 93 WNW 9 15 29.9 1013 10 16.0934 N/A
9:53 pm 21:53 Cloudy 45 7.2 42 5.6 90 90 NW 13 20 29.93 1014 10 16.0934 N/A
10:53 pm 22:53 Cloudy 44 6.7 41 5 89 89 NW 10 17 29.95 1014 10 16.0934 N/A
11:29 pm 23:29 Cloudy 44 6.7 42 5.6 93 93 WNW 8 13 29.97 1015 10 16.0934 N/A
11:53 pm 23:53 Cloudy 44 6.7 41 5 89 89 WNW 10 17 29.96 1015 10 16.0934 N/A

Powered by AerisWeather